| time (UTC) | temp F | wind direction | speed knots | gust knots | rain 1hr in | rain 24hr in | rain mn in | humidity % | barometer mb |
| 20260906110959 | 78 | 90 | 3.5 | 4.3 | 0.00 | 0.00 | 0.00 | 83 | 1013.9 |
| 20260906110500 | 78 | 91 | 3.5 | 3.5 | 0.00 | 0.00 | 0.00 | 83 | 1013.8 |
| 20260906105500 | 78 | 77 | 2.6 | 3.5 | 0.00 | 0.00 | 0.00 | 82 | 1013.6 |
| 20260906104959 | 78 | 97 | 3.5 | 3.5 | 0.00 | 0.00 | 0.00 | 82 | 1013.6 |
| 20260906104459 | 78 | 109 | 2.6 | 3.5 | 0.00 | 0.00 | 0.00 | 82 | 1013.5 |
| 20260906103959 | 78 | 90 | 2.6 | 3.5 | 0.00 | 0.00 | 0.00 | 81 | 1013.5 |
| 20260906103459 | 78 | 75 | 2.6 | 3.5 | 0.00 | 0.00 | 0.00 | 81 | 1013.5 |
| 20260906102459 | 78 | 102 | 2.6 | 2.6 | 0.00 | 0.00 | 0.00 | 81 | 1013.4 |
| 20260906101959 | 78 | 108 | 1.7 | 2.6 | 0.00 | 0.00 | 0.00 | 81 | 1013.4 |
| 20260906100959 | 78 | 62 | 2.6 | 3.5 | 0.00 | 0.00 | 0.00 | 81 | 1013.4 |
| 20260906100459 | 78 | 40 | 2.6 | 4.3 | 0.00 | 0.00 | 0.00 | 81 | 1013.3 |
| 20260906100029 | 78 | 42 | 3.5 | 4.3 | 0.00 | 0.00 | 0.00 | 81 | 1013.4 |
| 20260906095459 | 78 | 41 | 3.5 | 4.3 | 0.00 | 0.00 | 0.00 | 80 | 1013.4 |
| 20260906094959 | 78 | 52 | 4.3 | 5.2 | 0.00 | 0.00 | 0.00 | 80 | 1013.4 |
| 20260906092958 | 79 | 35 | 2.6 | 2.6 | 0.00 | 0.00 | 0.00 | 78 | 1013.2 |
| 20260906092458 | 79 | 22 | 2.6 | 2.6 | 0.00 | 0.00 | 0.00 | 78 | 1013.2 |
| 20260906091458 | 79 | 3 | 1.7 | 2.6 | 0.00 | 0.00 | 0.00 | 78 | 1013.2 |
| 20260906090959 | 79 | 326 | 0.9 | 2.6 | 0.00 | 0.00 | 0.00 | 77 | 1013.2 |
| 20260906090458 | 80 | 327 | 1.7 | 2.6 | 0.00 | 0.00 | 0.00 | 77 | 1013.2 |
| 20260906084458 | 80 | 220 | 2.6 | 2.6 | 0.00 | 0.00 | 0.00 | 75 | 1013.0 |
| 20260906083958 | 80 | 222 | 2.6 | 2.6 | 0.00 | 0.00 | 0.00 | 75 | 1013.0 |
| 20260906083458 | 80 | 219 | 1.7 | 2.6 | 0.00 | 0.00 | 0.00 | 75 | 1012.9 |
| 20260906082458 | 80 | 192 | 1.7 | 3.5 | 0.00 | 0.00 | 0.00 | 74 | 1012.8 |
| 20260906081959 | 80 | 186 | 2.6 | 3.5 | 0.00 | 0.00 | 0.00 | 74 | 1012.8 |
| 20260906081457 | 80 | 194 | 2.6 | 4.3 | 0.00 | 0.00 | 0.00 | 74 | 1012.8 |
| 20260906080957 | 80 | 195 | 2.6 | 4.3 | 0.00 | 0.00 | 0.00 | 74 | 1012.8 |
| 20260906080457 | 80 | 172 | 3.5 | 4.3 | 0.00 | 0.00 | 0.00 | 75 | 1012.8 |
| 20260906075957 | 80 | 180 | 3.5 | 4.3 | 0.00 | 0.00 | 0.00 | 75 | 1012.9 |
| 20260906075458 | 81 | 167 | 3.5 | 4.3 | 0.00 | 0.00 | 0.00 | 75 | 1013.0 |
| 20260906074457 | 81 | 182 | 3.5 | 4.3 | 0.00 | 0.00 | 0.00 | 74 | 1012.9 |
| 20260906073957 | 81 | 174 | 3.5 | 4.3 | 0.00 | 0.00 | 0.00 | 74 | 1012.9 |
| 20260906073457 | 81 | 164 | 4.3 | 4.3 | 0.00 | 0.00 | 0.00 | 73 | 1013.0 |
| 20260906072957 | 81 | 172 | 3.5 | 4.3 | 0.00 | 0.00 | 0.00 | 73 | 1013.1 |
| 20260906072457 | 82 | 162 | 4.3 | 4.3 | 0.00 | 0.00 | 0.00 | 72 | 1013.1 |
| 20260906071527 | 82 | 195 | 3.5 | 4.3 | 0.00 | 0.00 | 0.00 | 71 | 1013.2 |
| 20260906070957 | 82 | 184 | 3.5 | 4.3 | 0.00 | 0.00 | 0.00 | 71 | 1013.2 |
| 20260906065957 | 82 | 198 | 3.5 | 3.5 | 0.00 | 0.00 | 0.00 | 71 | 1013.2 |
| 20260906065457 | 82 | 201 | 3.5 | 4.3 | 0.00 | 0.00 | 0.00 | 72 | 1013.2 |
| 20260906064957 | 81 | 219 | 3.5 | 5.2 | 0.00 | 0.00 | 0.00 | 72 | 1013.2 |
| 20260906063956 | 82 | 235 | 5.2 | 6.1 | 0.00 | 0.00 | 0.00 | 71 | 1013.1 |
| 20260906063456 | 82 | 243 | 5.2 | 5.2 | 0.00 | 0.00 | 0.00 | 71 | 1013.1 |
| 20260906062956 | 82 | 232 | 4.3 | 5.2 | 0.00 | 0.00 | 0.00 | 70 | 1013.2 |
| 20260906062456 | 82 | 227 | 5.2 | 5.2 | 0.00 | 0.00 | 0.00 | 70 | 1013.2 |
| 20260906061956 | 82 | 226 | 3.5 | 3.5 | 0.00 | 0.00 | 0.00 | 69 | 1013.2 |
| 20260906061456 | 82 | 224 | 3.5 | 4.3 | 0.00 | 0.00 | 0.00 | 69 | 1013.2 |
| 20260906060956 | 82 | 224 | 2.6 | 5.2 | 0.00 | 0.00 | 0.00 | 69 | 1013.3 |
| 20260906060456 | 83 | 213 | 3.5 | 5.2 | 0.00 | 0.00 | 0.00 | 68 | 1013.2 |
| 20260906060026 | 83 | 205 | 4.3 | 5.2 | 0.00 | 0.00 | 0.00 | 68 | 1013.2 |
| 20260906054956 | 83 | 177 | 3.5 | 5.2 | 0.00 | 0.00 | 0.00 | 67 | 1013.2 |
| 20260906054456 | 83 | 181 | 4.3 | 5.2 | 0.00 | 0.00 | 0.00 | 67 | 1013.2 |
| 20260906054025 | 83 | 185 | 4.3 | 6.1 | 0.00 | 0.00 | 0.00 | 67 | 1013.2 |
| 20260906053526 | 83 | 186 | 4.3 | 6.1 | 0.00 | 0.00 | 0.00 | 67 | 1013.2 |
| 20260906053025 | 84 | 171 | 6.1 | 6.1 | 0.00 | 0.00 | 0.00 | 66 | 1013.3 |
| 20260906052026 | 84 | 185 | 4.3 | 5.2 | 0.00 | 0.00 | 0.00 | 65 | 1013.3 |
| 20260906051455 | 84 | 184 | 3.5 | 4.3 | 0.00 | 0.00 | 0.00 | 65 | 1013.3 |
| 20260906051026 | 84 | 186 | 4.3 | 4.3 | 0.00 | 0.00 | 0.00 | 65 | 1013.3 |
| 20260906050525 | 84 | 193 | 3.5 | 4.3 | 0.00 | 0.00 | 0.00 | 65 | 1013.2 |
| 20260906050026 | 84 | 194 | 4.3 | 5.2 | 0.00 | 0.00 | 0.00 | 64 | 1013.2 |
| 20260906045525 | 85 | 192 | 3.5 | 5.2 | 0.00 | 0.00 | 0.00 | 64 | 1013.2 |
| 20260906044955 | 85 | 196 | 4.3 | 5.2 | 0.00 | 0.00 | 0.00 | 64 | 1013.2 |
| 20260906044455 | 85 | 173 | 5.2 | 5.2 | 0.00 | 0.00 | 0.00 | 64 | 1013.3 |
| 20260906043455 | 85 | 177 | 4.3 | 4.3 | 0.00 | 0.00 | 0.00 | 63 | 1013.2 |
| 20260906042956 | 85 | 181 | 4.3 | 4.3 | 0.00 | 0.00 | 0.00 | 63 | 1013.2 |
| 20260906042455 | 86 | 180 | 4.3 | 4.3 | 0.00 | 0.00 | 0.00 | 62 | 1013.2 |
| 20260906041954 | 86 | 180 | 3.5 | 4.3 | 0.00 | 0.00 | 0.00 | 62 | 1013.2 |
| 20260906041455 | 86 | 184 | 2.6 | 5.2 | 0.00 | 0.00 | 0.00 | 62 | 1013.2 |
| 20260906040955 | 86 | 184 | 4.3 | 7.0 | 0.00 | 0.00 | 0.00 | 61 | 1013.2 |
| 20260906040454 | 86 | 173 | 4.3 | 7.0 | 0.00 | 0.00 | 0.00 | 61 | 1013.2 |
| 20260906040025 | 86 | 158 | 5.2 | 8.7 | 0.00 | 0.00 | 0.00 | 61 | 1013.2 |
| 20260906035525 | 87 | 171 | 7.0 | 8.7 | 0.00 | 0.00 | 0.00 | 60 | 1013.2 |
| 20260906035024 | 87 | 163 | 7.0 | 9.6 | 0.00 | 0.00 | 0.00 | 60 | 1013.2 |
| 20260906034455 | 87 | 170 | 8.7 | 9.6 | 0.00 | 0.00 | 0.00 | 59 | 1013.2 |
| 20260906034024 | 87 | 172 | 7.8 | 9.6 | 0.00 | 0.00 | 0.00 | 59 | 1013.2 |
| 20260906033524 | 87 | 168 | 9.6 | 9.6 | 0.00 | 0.00 | 0.00 | 59 | 1013.2 |
| 20260906033024 | 87 | 169 | 7.0 | 9.6 | 0.00 | 0.00 | 0.00 | 58 | 1013.2 |
| 20260906032454 | 87 | 158 | 7.8 | 10.4 | 0.00 | 0.00 | 0.00 | 58 | 1013.2 |
| 20260906032024 | 88 | 151 | 8.7 | 12.2 | 0.00 | 0.00 | 0.00 | 57 | 1013.2 |
| 20260906031525 | 88 | 153 | 8.7 | 12.2 | 0.00 | 0.00 | 0.00 | 57 | 1013.1 |
| 20260906030454 | 88 | 147 | 8.7 | 12.2 | 0.00 | 0.00 | 0.00 | 56 | 1013.0 |
| 20260906025524 | 89 | 150 | 8.7 | 11.3 | 0.00 | 0.00 | 0.00 | 54 | 1012.9 |
| 20260906024954 | 88 | 168 | 8.7 | 9.6 | 0.00 | 0.00 | 0.00 | 53 | 1012.9 |
| 20260906024454 | 89 | 155 | 7.0 | 9.6 | 0.00 | 0.00 | 0.00 | 51 | 1012.9 |
| 20260906023454 | 89 | 149 | 7.8 | 13.0 | 0.00 | 0.00 | 0.00 | 48 | 1012.7 |
| 20260906023024 | 90 | 152 | 4.3 | 6.1 | 0.00 | 0.00 | 0.00 | 46 | 1012.5 |
| 20260906022454 | 90 | 125 | 5.2 | 6.1 | 0.00 | 0.00 | 0.00 | 45 | 1012.4 |
| 20260906022024 | 91 | 128 | 6.1 | 7.0 | 0.00 | 0.00 | 0.00 | 45 | 1012.3 |
| 20260906021523 | 91 | 124 | 6.1 | 7.0 | 0.00 | 0.00 | 0.00 | 44 | 1012.2 |
| 20260906021023 | 91 | 124 | 4.3 | 6.1 | 0.00 | 0.00 | 0.00 | 44 | 1012.2 |
| 20260906020023 | 91 | 117 | 4.3 | 5.2 | 0.00 | 0.00 | 0.00 | 44 | 1012.1 |
| 20260906015523 | 91 | 125 | 4.3 | 5.2 | 0.00 | 0.00 | 0.00 | 44 | 1012.0 |
| 20260906015023 | 91 | 138 | 3.5 | 6.1 | 0.00 | 0.00 | 0.00 | 44 | 1012.0 |
| 20260906014523 | 92 | 121 | 5.2 | 6.1 | 0.00 | 0.00 | 0.00 | 43 | 1011.9 |
| 20260906014023 | 92 | 117 | 4.3 | 5.2 | 0.00 | 0.00 | 0.00 | 43 | 1011.9 |
| 20260906013523 | 92 | 114 | 5.2 | 5.2 | 0.00 | 0.00 | 0.00 | 43 | 1011.8 |
| 20260906013023 | 92 | 113 | 4.3 | 5.2 | 0.00 | 0.00 | 0.00 | 43 | 1011.8 |
| 20260906012523 | 92 | 113 | 4.3 | 5.2 | 0.00 | 0.00 | 0.00 | 43 | 1011.8 |
| 20260906011953 | 92 | 111 | 4.3 | 5.2 | 0.00 | 0.00 | 0.00 | 43 | 1011.7 |
| 20260906011452 | 92 | 112 | 4.3 | 5.2 | 0.00 | 0.00 | 0.00 | 43 | 1011.7 |
| 20260906011025 | 93 | 108 | 4.3 | 6.1 | 0.00 | 0.00 | 0.00 | 42 | 1011.7 |
| 20260906010454 | 93 | 111 | 4.3 | 6.1 | 0.00 | 0.00 | 0.00 | 42 | 1011.5 |
| 20260906005955 | 93 | 115 | 5.2 | 6.1 | 0.00 | 0.00 | 0.00 | 42 | 1011.5 |
| 20260906005454 | 93 | 115 | 4.3 | 4.3 | 0.00 | 0.00 | 0.00 | 42 | 1011.5 |
| 20260906004953 | 93 | 115 | 4.3 | 6.1 | 0.00 | 0.00 | 0.00 | 42 | 1011.5 |
| 20260906004454 | 93 | 122 | 5.2 | 7.8 | 0.00 | 0.00 | 0.00 | 41 | 1011.5 |
| 20260906003953 | 94 | 111 | 4.3 | 7.8 | 0.00 | 0.00 | 0.00 | 41 | 1011.5 |
| 20260906003524 | 94 | 124 | 3.5 | 7.0 | 0.00 | 0.00 | 0.00 | 40 | 1011.5 |
| 20260906002523 | 95 | 108 | 3.5 | 6.1 | 0.00 | 0.00 | 0.00 | 40 | 1011.4 |
| 20260906002022 | 95 | 128 | 3.5 | 7.8 | 0.00 | 0.00 | 0.00 | 39 | 1011.5 |
| 20260906001523 | 95 | 123 | 5.2 | 7.8 | 0.00 | 0.00 | 0.00 | 38 | 1011.4 |
| 20260906001022 | 95 | 123 | 6.1 | 9.6 | 0.00 | 0.00 | 0.00 | 38 | 1011.3 |
| 20260906000523 | 96 | 124 | 7.0 | 9.6 | 0.00 | 0.00 | 0.00 | 38 | 1011.3 |
| 20260905235522 | 96 | 120 | 6.1 | 9.6 | 0.00 | 0.00 | 0.00 | 38 | 1011.2 |
| 20260905235024 | 96 | 122 | 7.8 | 9.6 | 0.00 | 0.00 | 0.00 | 36 | 1011.2 |
| 20260905234452 | 96 | 126 | 7.0 | 7.8 | 0.00 | 0.00 | 0.00 | 36 | 1011.3 |
| 20260905233952 | 97 | 142 | 7.0 | 9.6 | 0.00 | 0.00 | 0.00 | 36 | 1011.2 |
| 20260905233452 | 97 | 151 | 4.3 | 9.6 | 0.00 | 0.00 | 0.00 | 35 | 1011.2 |
| 20260905232954 | 97 | 102 | 7.0 | 9.6 | 0.00 | 0.00 | 0.00 | 37 | 1011.1 |
| 20260905232523 | 96 | 116 | 4.3 | 10.4 | 0.00 | 0.00 | 0.00 | 37 | 1011.1 |
| 20260905231951 | 96 | 83 | 10.4 | 12.2 | 0.00 | 0.00 | 0.00 | 37 | 1011.2 |
| 20260905231452 | 96 | 103 | 12.2 | 12.2 | 0.00 | 0.00 | 0.00 | 36 | 1011.2 |
| 20260905230954 | 97 | 105 | 8.7 | 9.6 | 0.00 | 0.00 | 0.00 | 36 | 1011.2 |
| 20260905230451 | 97 | 99 | 6.1 | 11.3 | 0.00 | 0.00 | 0.00 | 35 | 1011.1 |
| 20260905225951 | 97 | 95 | 9.6 | 15.6 | 0.00 | 0.00 | 0.00 | 35 | 1011.2 |
| 20260905225451 | 97 | 112 | 7.8 | 15.6 | 0.00 | 0.00 | 0.00 | 35 | 1011.1 |
| 20260905225021 | 98 | 260 | 0.9 | 13.0 | 0.00 | 0.00 | 0.00 | 35 | 1011.1 |
| 20260905224521 | 97 | 176 | 3.5 | 13.0 | 0.00 | 0.00 | 0.00 | 35 | 1011.1 |
| 20260905223451 | 97 | 109 | 7.0 | 12.2 | 0.00 | 0.00 | 0.00 | 36 | 1011.2 |
| 20260905223021 | 97 | 135 | 7.0 | 12.2 | 0.00 | 0.00 | 0.00 | 35 | 1011.2 |
| 20260905222521 | 97 | 100 | 7.8 | 8.7 | 0.00 | 0.00 | 0.00 | 36 | 1011.2 |
| 20260905220951 | 97 | 193 | 2.6 | 8.7 | 0.00 | 0.00 | 0.00 | 37 | 1011.3 |
| 20260905220020 | 97 | 102 | 9.6 | 12.2 | 0.00 | 0.00 | 0.00 | 36 | 1011.3 |
| 20260905215520 | 96 | 198 | 1.7 | 12.2 | 0.00 | 0.00 | 0.00 | 37 | 1011.4 |
| 20260905215020 | 96 | 110 | 4.3 | 13.0 | 0.00 | 0.00 | 0.00 | 37 | 1011.4 |
| 20260905214520 | 98 | 148 | 9.6 | 13.0 | 0.00 | 0.00 | 0.00 | 37 | 1011.4 |
| 20260905213520 | 97 | 182 | 4.3 | 12.2 | 0.00 | 0.00 | 0.00 | 37 | 1011.5 |
| 20260905213020 | 96 | 115 | 7.0 | 12.2 | 0.00 | 0.00 | 0.00 | 38 | 1011.5 |
| 20260905211520 | 98 | 152 | 1.7 | 11.3 | 0.00 | 0.00 | 0.00 | 37 | 1011.7 |
| 20260905211019 | 96 | 312 | 4.3 | 11.3 | 0.00 | 0.00 | 0.00 | 38 | 1011.7 |
| 20260905210450 | 96 | 119 | 7.8 | 7.8 | 0.00 | 0.00 | 0.00 | 38 | 1011.8 |
| 20260905205519 | 96 | 137 | 6.1 | 10.4 | 0.00 | 0.00 | 0.00 | 39 | 1012.0 |
| 20260905205019 | 95 | 140 | 9.6 | 10.4 | 0.00 | 0.00 | 0.00 | 40 | 1012.1 |
| 20260905204519 | 95 | 112 | 7.0 | 12.2 | 0.00 | 0.00 | 0.00 | 40 | 1012.1 |
| 20260905204019 | 95 | 105 | 7.0 | 12.2 | 0.00 | 0.00 | 0.00 | 40 | 1012.2 |
| 20260905203519 | 96 | 136 | 6.1 | 8.7 | 0.00 | 0.00 | 0.00 | 38 | 1012.3 |
| 20260905202519 | 96 | 199 | 8.7 | 11.3 | 0.00 | 0.00 | 0.00 | 38 | 1012.4 |
| 20260905202020 | 97 | 165 | 9.6 | 10.4 | 0.00 | 0.00 | 0.00 | 38 | 1012.5 |
| 20260905201519 | 96 | 91 | 4.3 | 11.3 | 0.00 | 0.00 | 0.00 | 39 | 1012.6 |
| 20260905201019 | 95 | 135 | 3.5 | 11.3 | 0.00 | 0.00 | 0.00 | 40 | 1012.7 |
| 20260905200519 | 95 | 170 | 6.1 | 11.3 | 0.00 | 0.00 | 0.00 | 40 | 1012.7 |
| 20260905200019 | 97 | 120 | 6.1 | 14.8 | 0.00 | 0.00 | 0.00 | 38 | 1012.8 |
| 20260905195519 | 96 | 145 | 2.6 | 14.8 | 0.00 | 0.00 | 0.00 | 39 | 1012.8 |
| 20260905195020 | 96 | 113 | 11.3 | 13.0 | 0.00 | 0.00 | 0.00 | 39 | 1012.8 |
| 20260905194518 | 97 | 110 | 7.0 | 13.0 | 0.00 | 0.00 | 0.00 | 39 | 1012.9 |
| 20260905193948 | 96 | 126 | 4.3 | 9.6 | 0.00 | 0.00 | 0.00 | 40 | 1013.1 |
| 20260905193519 | 95 | 160 | 4.3 | 9.6 | 0.00 | 0.00 | 0.00 | 41 | 1013.1 |
| 20260905193019 | 94 | 117 | 7.0 | 9.6 | 0.00 | 0.00 | 0.00 | 41 | 1013.2 |
| 20260905192518 | 95 | 132 | 5.2 | 10.4 | 0.00 | 0.00 | 0.00 | 41 | 1013.3 |
| 20260905192018 | 95 | 103 | 0.9 | 14.8 | 0.00 | 0.00 | 0.00 | 41 | 1013.3 |
| 20260905191449 | 95 | 133 | 10.4 | 14.8 | 0.00 | 0.00 | 0.00 | 41 | 1013.4 |
| 20260905191018 | 96 | 126 | 5.2 | 9.6 | 0.00 | 0.00 | 0.00 | 41 | 1013.5 |
| 20260905190448 | 95 | 225 | 9.6 | 9.6 | 0.00 | 0.00 | 0.00 | 42 | 1013.6 |
| 20260905190018 | 93 | 92 | 8.7 | 9.6 | 0.00 | 0.00 | 0.00 | 43 | 1013.6 |
| 20260905185518 | 94 | 139 | 1.7 | 13.0 | 0.00 | 0.00 | 0.00 | 42 | 1013.7 |
| 20260905185018 | 94 | 118 | 2.6 | 13.0 | 0.00 | 0.00 | 0.00 | 42 | 1013.9 |
| 20260905184518 | 95 | 110 | 7.8 | 11.3 | 0.00 | 0.00 | 0.00 | 42 | 1013.9 |
| 20260905184018 | 94 | 111 | 11.3 | 11.3 | 0.00 | 0.00 | 0.00 | 43 | 1014.0 |
| 20260905183518 | 93 | 90 | 6.1 | 9.6 | 0.00 | 0.00 | 0.00 | 44 | 1014.1 |
| 20260905183018 | 94 | 118 | 4.3 | 9.6 | 0.00 | 0.00 | 0.00 | 42 | 1014.2 |
| 20260905182518 | 95 | 125 | 7.8 | 12.2 | 0.00 | 0.00 | 0.00 | 41 | 1014.1 |
| 20260905182018 | 95 | 154 | 2.6 | 12.2 | 0.00 | 0.00 | 0.00 | 41 | 1014.2 |
| 20260905181518 | 95 | 114 | 7.8 | 13.9 | 0.00 | 0.00 | 0.00 | 40 | 1014.2 |
| 20260905181018 | 94 | 206 | 5.2 | 13.9 | 0.00 | 0.00 | 0.00 | 41 | 1014.3 |
| 20260905180517 | 94 | 129 | 3.5 | 13.9 | 0.00 | 0.00 | 0.00 | 41 | 1014.4 |
| 20260905175517 | 94 | 114 | 2.6 | 10.4 | 0.00 | 0.00 | 0.00 | 42 | 1014.5 |
| 20260905175017 | 94 | 121 | 4.3 | 9.6 | 0.00 | 0.00 | 0.00 | 41 | 1014.6 |
| 20260905174518 | 93 | 117 | 7.0 | 12.2 | 0.00 | 0.00 | 0.00 | 42 | 1014.7 |
| 20260905174018 | 93 | 242 | 1.7 | 12.2 | 0.00 | 0.00 | 0.00 | 44 | 1014.8 |
| 20260905173517 | 94 | 144 | 8.7 | 11.3 | 0.00 | 0.00 | 0.00 | 42 | 1014.7 |
| 20260905172518 | 92 | 122 | 10.4 | 11.3 | 0.00 | 0.00 | 0.00 | 45 | 1014.9 |
| 20260905172017 | 93 | 182 | 6.1 | 7.8 | 0.00 | 0.00 | 0.00 | 45 | 1014.9 |
| 20260905171517 | 92 | 188 | 3.5 | 8.7 | 0.00 | 0.00 | 0.00 | 46 | 1015.1 |
| 20260905171017 | 93 | 294 | 1.7 | 8.7 | 0.00 | 0.00 | 0.00 | 45 | 1015.0 |
| 20260905170517 | 92 | 79 | 5.2 | 7.8 | 0.00 | 0.00 | 0.00 | 46 | 1015.1 |
| 20260905170017 | 93 | 160 | 6.1 | 8.7 | 0.00 | 0.00 | 0.00 | 45 | 1015.0 |
| 20260905165517 | 91 | 222 | 5.2 | 11.3 | 0.00 | 0.00 | 0.00 | 47 | 1015.1 |
| 20260905165017 | 92 | 188 | 6.1 | 11.3 | 0.00 | 0.00 | 0.00 | 46 | 1015.1 |
| 20260905164017 | 92 | 124 | 2.6 | 11.3 | 0.00 | 0.00 | 0.00 | 46 | 1015.1 |
| 20260905163517 | 92 | 156 | 7.8 | 11.3 | 0.00 | 0.00 | 0.00 | 47 | 1015.0 |
| 20260905163017 | 91 | 330 | 3.5 | 7.8 | 0.00 | 0.00 | 0.00 | 48 | 1015.1 |
| 20260905162517 | 92 | 86 | 7.8 | 7.8 | 0.00 | 0.00 | 0.00 | 47 | 1015.1 |
| 20260905162017 | 92 | 89 | 2.6 | 6.1 | 0.00 | 0.00 | 0.00 | 49 | 1015.1 |
| 20260905161516 | 92 | 238 | 1.7 | 6.1 | 0.00 | 0.00 | 0.00 | 49 | 1015.2 |
| 20260905160017 | 89 | 311 | 2.6 | 7.8 | 0.00 | 0.00 | 0.00 | 54 | 1015.2 |
| 20260905155016 | 89 | 203 | 2.6 | 7.0 | 0.00 | 0.00 | 0.00 | 54 | 1015.3 |
| 20260905154516 | 89 | 153 | 4.3 | 7.8 | 0.00 | 0.00 | 0.00 | 55 | 1015.3 |
| 20260905154016 | 89 | 349 | 0.9 | 7.8 | 0.00 | 0.00 | 0.00 | 57 | 1015.3 |
| 20260905153516 | 89 | 263 | 1.7 | 6.1 | 0.00 | 0.00 | 0.00 | 57 | 1015.3 |
| 20260905153016 | 88 | 270 | 0.9 | 8.7 | 0.00 | 0.00 | 0.00 | 59 | 1015.3 |
| 20260905152516 | 87 | 237 | 6.1 | 8.7 | 0.00 | 0.00 | 0.00 | 59 | 1015.3 |
| 20260905152016 | 87 | 250 | 6.1 | 8.7 | 0.00 | 0.00 | 0.00 | 59 | 1015.3 |
| 20260905151016 | 87 | 221 | 6.1 | 7.8 | 0.00 | 0.00 | 0.00 | 61 | 1015.2 |
| 20260905150516 | 87 | 238 | 3.5 | 7.0 | 0.00 | 0.00 | 0.00 | 62 | 1015.2 |
| 20260905145516 | 86 | 266 | 3.5 | 7.8 | 0.00 | 0.01 | 0.00 | 64 | 1015.2 |
| 20260905145018 | 86 | 250 | 6.1 | 9.6 | 0.00 | 0.01 | 0.00 | 64 | 1015.2 |
| 20260905144515 | 86 | 228 | 3.5 | 10.4 | 0.00 | 0.02 | 0.00 | 65 | 1015.2 |
| 20260905144015 | 85 | 235 | 6.1 | 10.4 | 0.00 | 0.03 | 0.00 | 66 | 1015.1 |
| 20260905143016 | 85 | 248 | 7.8 | 9.6 | 0.00 | 0.03 | 0.00 | 67 | 1015.1 |
| 20260905142515 | 84 | 299 | 5.2 | 6.1 | 0.00 | 0.03 | 0.00 | 68 | 1015.1 |
| 20260905142015 | 84 | 243 | 6.1 | 8.7 | 0.00 | 0.03 | 0.00 | 69 | 1015.1 |
| 20260905141515 | 83 | 241 | 4.3 | 8.7 | 0.00 | 0.03 | 0.00 | 71 | 1015.1 |
| 20260905140515 | 83 | 195 | 5.2 | 7.0 | 0.00 | 0.03 | 0.00 | 72 | 1015.0 |
| 20260905140015 | 82 | 237 | 5.2 | 8.7 | 0.00 | 0.03 | 0.00 | 73 | 1015.0 |
| 20260905135515 | 82 | 229 | 4.3 | 8.7 | 0.00 | 0.03 | 0.00 | 75 | 1015.0 |
| 20260905135015 | 82 | 221 | 7.8 | 8.7 | 0.00 | 0.03 | 0.00 | 75 | 1015.0 |
| 20260905134515 | 81 | 219 | 6.1 | 6.1 | 0.00 | 0.03 | 0.00 | 76 | 1015.0 |
| 20260905134015 | 81 | 205 | 4.3 | 5.2 | 0.00 | 0.03 | 0.00 | 77 | 1015.0 |
| 20260905133515 | 81 | 196 | 3.5 | 5.2 | 0.00 | 0.03 | 0.00 | 77 | 1015.0 |
| 20260905132014 | 79 | 217 | 5.2 | 5.2 | 0.00 | 0.03 | 0.00 | 80 | 1014.9 |
| 20260905131514 | 79 | 202 | 3.5 | 3.5 | 0.00 | 0.03 | 0.00 | 80 | 1014.9 |
| 20260905131014 | 79 | 172 | 1.7 | 4.3 | 0.00 | 0.03 | 0.00 | 81 | 1014.9 |
| 20260905130514 | 78 | 135 | 2.6 | 4.3 | 0.00 | 0.03 | 0.00 | 82 | 1014.9 |
| 20260905130014 | 78 | 102 | 2.6 | 3.5 | 0.00 | 0.03 | 0.00 | 83 | 1014.8 |
| 20260905125514 | 77 | 68 | 2.6 | 3.5 | 0.00 | 0.03 | 0.00 | 83 | 1014.8 |
| 20260905125014 | 77 | 42 | 2.6 | 2.6 | 0.00 | 0.03 | 0.00 | 84 | 1014.8 |
| 20260905124514 | 77 | 7 | 2.6 | 2.6 | 0.00 | 0.03 | 0.00 | 84 | 1014.7 |
| 20260905123514 | 77 | 322 | 2.6 | 3.5 | 0.00 | 0.03 | 0.00 | 85 | 1014.6 |
| 20260905123014 | 76 | 262 | 3.5 | 3.5 | 0.00 | 0.03 | 0.00 | 86 | 1014.5 |
| 20260905122514 | 76 | 259 | 3.5 | 3.5 | 0.00 | 0.03 | 0.00 | 86 | 1014.4 |
| 20260905122014 | 77 | 259 | 2.6 | 4.3 | 0.00 | 0.03 | 0.00 | 85 | 1014.5 |
| 20260905121514 | 77 | 245 | 3.5 | 4.3 | 0.00 | 0.03 | 0.00 | 85 | 1014.4 |
| 20260905121014 | 77 | 233 | 4.3 | 4.3 | 0.00 | 0.03 | 0.00 | 85 | 1014.4 |
| 20260905120514 | 76 | 229 | 4.3 | 4.3 | 0.00 | 0.03 | 0.00 | 86 | 1014.4 |
| 20260905120014 | 76 | 241 | 3.5 | 4.3 | 0.00 | 0.03 | 0.00 | 85 | 1014.4 |
| 20260905115514 | 76 | 228 | 3.5 | 4.3 | 0.00 | 0.03 | 0.00 | 85 | 1014.3 |
| 20260905115014 | 76 | 228 | 4.3 | 5.2 | 0.00 | 0.03 | 0.00 | 85 | 1014.1 |
| 20260905114513 | 76 | 233 | 4.3 | 5.2 | 0.00 | 0.03 | 0.00 | 84 | 1014.1 |
| 20260905114013 | 77 | 228 | 4.3 | 5.2 | 0.00 | 0.03 | 0.00 | 84 | 1014.0 |
| 20260905113513 | 77 | 221 | 4.3 | 5.2 | 0.00 | 0.03 | 0.00 | 84 | 1014.0 |
| 20260905113013 | 77 | 225 | 5.2 | 5.2 | 0.00 | 0.03 | 0.00 | 84 | 1014.0 |
| 20260905112513 | 77 | 227 | 4.3 | 5.2 | 0.00 | 0.03 | 0.00 | 83 | 1014.0 |
| 20260905112013 | 77 | 206 | 4.3 | 5.2 | 0.00 | 0.03 | 0.00 | 83 | 1014.0 |
| 20260905111513 | 77 | 212 | 4.3 | 4.3 | 0.00 | 0.03 | 0.00 | 83 | 1014.1 |